Location: Central Falls
(41.8900°N, 71.3929°W)
Time: 11:46:49
(UTC+00:00)

Altair - Pass Details

Date: 10 December 2023
Orbit: 1501 x 1682 km, 47.2° (Epoch: 20 February)

Event Time Altitude Azimuth Distance (km) Brightness Sun altitude
Rises 17:08:04 0° 296° (WNW) 4,745 9.9 24.8°
Reaches altitude 10° 17:11:10 10° 295° (WNW) 3,736 9.4 24.7°
Maximum altitude 17:20:32 76° 212° (SSW) 1,556 8.2 24.4°
Drops below altitude 10° 17:29:40 10° 128° (SE) 3,645 9.9 24.1°
Sets 17:32:40 0° 127° (SE) 4,624 10.3 24.0°
